[[{"header":{"parameterUnit":"m.s-1","parameterCategory":1,"la1":30.2991,"la2":30.254,"lo1":-89.0895,"lo2":-89.0444,"dy":0.0017,"dx":0.0017,"nx":28,"ny":28,"refTime":"2024-03-03T03:00:00:Z","depth":0,"parameterNumber":2,"parameterNumberName":"U-component_of_WINDS"},"data":[0,0,0,0,0,0,0,0,0,0,0,0,0,0,0,0,0,0,0,0,0,0,0,0,0,0,0,0,0,0,0,0,0,0,0,0,0,0,0,0,0,0,0,0,0,0,0,0,0,0,0,0,0,0,0,0,0,0,-3.9351,-3.9351,0,-3.9331,-3.933,-3.933,-3.9238,-3.9236,-3.9234,-3.9231,-3.9211,-3.9212,-3.9214,0,0,0,0,0,0,0,0,0,0,0,0,0,-3.9313,-3.9314,-3.9351,-3.9351,-3.9351,-3.9331,-3.933,-3.933,-3.9238,-3.9236,-3.9233,-3.9231,-3.921,-3.9212,-3.9214,0,0,0,0,0,0,0,0,0,0,0,0,0,-3.9314,-3.9314,-3.9351,-3.9302,-3.9298,-3.9331,-3.933,-3.933,-3.9239,-3.9236,-3.9232,-3.9229,-3.921,-3.9212,-3.9214,-3.9292,0,0,-3.9221,-3.9222,0,0,0,0,0,0,0,0,-3.9314,-3.9316,-3.931,-3.9306,-3.9301,-3.9283,-3.9309,-3.9317,-3.924,-3.9261,-3.9231,-3.9228,-3.9238,-3.9237,-3.9241,-3.9291,-3.9291,-3.9221,-3.9222,-3.9223,-3.9224,0,0,0,0,0,0,0,-3.9314,-3.9316,-3.9343,-3.931,-3.9304,-3.9282,-3.9279,-3.931,-3.9268,-3.9259,-3.9252,-3.9251,-3.9234,-3.9239,-3.9239,-3.929,-3.9221,-3.9223,-3.9224,-3.9225,-3.9406,-3.9409,0,0,0,0,0,0,-3.9321,-3.9317,-3.9344,-3.9342,-3.93,-3.9285,-3.9282,-3.9292,-3.9267,-3.926,-3.9254,-3.9247,-3.9237,-3.9237,-3.9238,-3.9329,-3.9223,-3.9225,-3.9226,-3.9403,-3.9407,-3.9411,0,0,0,0,0,0,-3.9321,-3.9324,-3.9344,-3.9328,-3.9329,-3.929,-3.9302,-3.9294,-3.9297,-3.9263,-3.9255,-3.9266,-3.9234,-3.9235,-3.928,-3.9327,-3.9226,-3.9228,-3.9399,-3.9404,-3.9409,-3.951,0,0,0,0,0,0,-3.932,-3.9325,-3.9353,-3.9329,-3.933,-3.9386,-3.9305,-3.9296,-3.9302,-3.9292,-3.9272,-3.9266,-3.9232,-3.9277,-3.9282,-3.9328,-3.923,-3.9394,-3.9401,-3.9407,-3.9502,-3.9518,-3.9532,0,0,0,0,0,-3.9319,-3.9382,-3.9355,-3.9359,-3.9365,-3.9389,-3.9389,-3.9348,-3.9306,-3.9334,-3.9313,-3.9267,-3.9322,-3.9283,-3.9287,-3.9334,-3.9391,-3.9399,-3.9407,-3.9496,-3.9515,-3.9531,0,0,0,0,0,0,-3.9412,-3.9378,-3.9348,-3.9405,-3.9401,-3.9373,-3.9408,-3.937,-3.9377,-3.9368,-3.9317,-3.9313,-3.9366,-3.9355,-3.9312,-3.941,-3.9348,-3.9358,-3.9415,-3.9433,-3.9447,-3.9448,-3.9232,0,0,0,0,0,-3.9439,-3.9461,-3.9431,-3.9484,-3.9484,-3.9447,-3.9456,-3.9425,-3.9418,-3.9416,-3.9397,-3.9393,-3.9409,-3.9421,-3.9433,-3.9501,-3.9496,-3.9537,-3.9551,-3.9563,-3.9571,-3.9607,-3.9625,-3.9437,-3.9436,-3.9436,0,0,-3.9496,-3.948,-3.9497,-3.9503,-3.9496,-3.952,-3.9446,-3.9474,-3.9492,-3.942,-3.9461,-3.9448,-3.944,-3.9497,-3.9521,-3.9489,-3.9623,-3.9573,-3.9583,-3.9584,-3.9617,-3.9635,-3.9651,-3.9442,-3.9441,-3.944,0,0,-3.961,-3.9601,-3.9645,-3.964,-3.9631,-3.9606,-3.9618,-3.9597,-3.9585,-3.9626,-3.9573,-3.9594,-3.9623,-3.9619,-3.9622,-3.974,-3.9697,-3.9746,-3.9821,-3.9857,-3.9872,-3.9885,-3.9926,-3.9942,-3.9754,-3.9754,-3.9755,0,-3.9681,-3.9715,-3.9672,-3.9705,-3.971,-3.9648,-3.9692,-3.969,-3.9685,-3.969,-3.9656,-3.9692,-3.9682,-3.9737,-3.9767,-3.9771,-3.9782,-3.9746,-3.9873,-3.9886,-3.9897,-3.9936,-3.9952,-3.976,-3.976,-3.9759,-3.9758,0,-3.9803,-3.9828,-3.9865,-3.9863,-3.9873,-3.9912,-3.9875,-3.989,-3.986,-3.984,-3.9883,-3.987,-3.9879,-3.9891,-3.9861,-3.9943,-3.9924,-3.9882,-3.9819,-3.9922,-3.9958,-3.9972,-3.9769,-3.9766,-3.9765,-3.9763,0,0,-3.9972,-3.9949,-3.9963,-3.9962,-3.9949,-3.9968,-4.0005,-4.0015,-4.0029,-4.003,-4.0059,-4.0087,-4.0049,-4.0052,-4.0022,-4.0053,-4.0148,-4.0007,-4.0007,-4.0033,-4.0238,-4.0268,-4.0286,-4.0121,-4.0124,-4.0126,-4.0238,0,-4.0081,-4.0142,-4.0106,-4.0173,-4.0196,-4.0139,-4.0172,-4.0168,-4.0151,-4.0169,-4.015,-4.017,-4.0119,-4.012,-4.0149,-4.013,-4.0188,-4.0122,-4.0148,-4.0149,-4.015,-4.0305,-4.0336,-4.0443,-4.0252,-4.0254,-4.0256,0,-4.0215,-4.0222,-4.0292,-4.0276,-4.0285,-4.0314,-4.0322,-4.034,-4.0335,-4.0321,-4.0326,-4.0289,-4.0325,-4.0265,-4.0315,-4.027,-4.028,-4.0272,-4.0276,-4.0274,-4.0207,-4.0307,-4.0475,-4.0491,-4.0278,-4.0276,-4.0275,0,-4.033,-4.0358,-4.0403,-4.0404,-4.0388,-4.041,-4.0405,-4.0397,-4.0406,-4.0414,-4.0419,-4.0431,-4.0437,-4.0447,-4.0414,-4.0374,-4.0468,-4.0405,-4.0457,-4.0458,-4.0477,-4.0476,-4.0648,-4.0487,-4.0486,-4.0486,-4.0486,0,-4.0454,-4.0499,-4.0455,-4.0482,-4.0531,-4.0491,-4.0541,-4.0529,-4.0524,-4.0548,-4.0501,-4.0525,-4.0482,-4.0502,-4.0478,-4.0522,-4.0526,-4.0515,-4.0507,-4.0518,-4.0519,-4.0522,-4.0513,-4.049,-4.0489,-4.0488,-4.0488,0,-4.059,-4.0562,-4.0608,-4.059,-4.0587,-4.0624,-4.0608,-4.0633,-4.0615,-4.0647,-4.0653,-4.0623,-4.0645,-4.0615,-4.0633,-4.0617,-4.0678,-4.066,-4.0679,-4.0674,-4.0727,-4.0722,-4.0905,-4.0926,-4.0753,-4.0755,-4.0756,0,-4.067,-4.0703,-4.0689,-4.0703,-4.07,-4.0723,-4.0733,-4.0696,-4.0708,-4.0707,-4.0733,-4.0751,-4.0763,-4.0801,-4.0782,-4.0796,-4.0777,-4.0841,-4.0779,-4.0789,-4.0777,-4.0775,-4.0778,-4.0853,-4.0855,-4.0856,-4.0858,0,-4.0814,-4.08,-4.0816,-4.0828,-4.0842,-4.085,-4.0854,-4.0868,-4.0829,-4.0846,-4.0868,-4.0878,-4.0898,-4.0917,-4.0927,-4.0921,-4.0883,-4.0878,-4.089,-4.09,-4.091,-4.0905,-4.0712,-4.0873,-4.0872,-4.087,-4.087,-4.0869,-4.0923,-4.095,-4.0946,-4.0966,-4.0966,-4.0972,-4.0995,-4.0981,-4.0999,-4.1012,-4.099,-4.1019,-4.1016,-4.1025,-4.1024,-4.1046,-4.1019,-4.1037,-4.1041,-4.1046,-4.1054,-4.0909,-4.1048,-4.1048,-4.1047,-4.1047,-4.1047,0,-4.1064,-4.1059,-4.1079,-4.1087,-4.1104,-4.1069,-4.1073,-4.1088,-4.1114,-4.1115,-4.1129,-4.1156,-4.1174,-4.1158,-4.1173,-4.1194,-4.1178,-4.12,-4.1196,-4.1196,-4.1078,-4.1065,-4.1213,-4.1213,-4.1213,-4.1213,-4.1213,-4.1213,-4.1139,-4.1184,-4.117,-4.1215,-4.121,-4.1238,-4.1243,-4.1249,-4.1249,-4.1281,-4.1297,-4.1287,-4.1281,-4.1296,-4.1312,-4.1307,-4.1314,-4.1342,-4.1331,-4.122,-4.1204,-4.1188,-4.1176,-4.1345,-4.1345,-4.1446,-4.1447,-4.1448]},{"header":{"parameterUnit":"m.s-1","parameterCategory":1,"la1":30.2991,"la2":30.254,"lo1":-89.0895,"lo2":-89.0444,"dy":0.0017,"dx":0.0017,"nx":28,"ny":28,"refTime":"2024-03-03T03:00:00:Z","depth":0,"parameterNumber":3,"parameterNumberName":"V-component_of_WINDS"},"data":[0,0,0,0,0,0,0,0,0,0,0,0,0,0,0,0,0,0,0,0,0,0,0,0,0,0,0,0,0,0,0,0,0,0,0,0,0,0,0,0,0,0,0,0,0,0,0,0,0,0,0,0,0,0,0,0,0,0,0.6218,0.6218,0,0.6245,0.6246,0.6246,0.6298,0.6299,0.63,0.6301,0.6327,0.6327,0.6327,0,0,0,0,0,0,0,0,0,0,0,0,0,0.6209,0.6209,0.6218,0.6218,0.6218,0.6245,0.6246,0.6246,0.6298,0.6299,0.6301,0.6302,0.6327,0.6327,0.6327,0,0,0,0,0,0,0,0,0,0,0,0,0,0.6222,0.6208,0.6217,0.6247,0.625,0.6245,0.6246,0.6246,0.6298,0.6299,0.6301,0.6302,0.6328,0.6327,0.6327,0.6294,0,0,0.6326,0.6325,0,0,0,0,0,0,0,0,0.6221,0.6222,0.6243,0.6245,0.6249,0.627,0.6252,0.6262,0.6297,0.628,0.6301,0.6303,0.6307,0.6308,0.631,0.6295,0.6296,0.6326,0.6325,0.6325,0.6325,0,0,0,0,0,0,0,0.622,0.6221,0.6229,0.6243,0.6247,0.6259,0.6263,0.6254,0.6284,0.6281,0.6285,0.6288,0.6309,0.631,0.6311,0.6297,0.6326,0.6325,0.6325,0.6325,0.6259,0.6257,0,0,0,0,0,0,0.6215,0.622,0.6228,0.6229,0.6239,0.6258,0.6262,0.6262,0.6285,0.629,0.6287,0.629,0.631,0.6311,0.6312,0.6277,0.6325,0.6325,0.6325,0.626,0.6258,0.6257,0,0,0,0,0,0,0.6215,0.6215,0.6227,0.6226,0.6228,0.6257,0.6256,0.6261,0.6263,0.6289,0.6294,0.6283,0.6311,0.6313,0.6299,0.6279,0.6325,0.6324,0.6262,0.626,0.6258,0.6205,0,0,0,0,0,0,0.6214,0.6215,0.6203,0.6225,0.6228,0.6213,0.6254,0.6261,0.6262,0.6268,0.6286,0.6291,0.6313,0.6299,0.6298,0.6279,0.6324,0.6264,0.6261,0.6258,0.6209,0.6201,0.6195,0,0,0,0,0,0.6214,0.6186,0.6202,0.6202,0.6214,0.6211,0.6213,0.6239,0.6261,0.6249,0.6266,0.629,0.6281,0.6297,0.6297,0.6277,0.6265,0.6262,0.6259,0.6212,0.6203,0.6195,0,0,0,0,0,0,0.6158,0.6189,0.6207,0.6186,0.6196,0.622,0.6206,0.6228,0.6232,0.6236,0.6268,0.6272,0.6254,0.6264,0.6282,0.6248,0.6277,0.6274,0.6242,0.6233,0.6227,0.6225,0.6324,0,0,0,0,0,0.6144,0.614,0.6167,0.6145,0.615,0.6177,0.6177,0.6196,0.6208,0.6212,0.6228,0.6237,0.6237,0.6236,0.6236,0.6211,0.6216,0.6197,0.619,0.6184,0.6181,0.617,0.6162,0.6246,0.6246,0.6246,0,0,0.6113,0.613,0.6125,0.6135,0.6145,0.614,0.618,0.6173,0.617,0.6211,0.6199,0.6211,0.6224,0.6205,0.6197,0.6212,0.6159,0.618,0.6175,0.6175,0.6165,0.6157,0.615,0.6243,0.6244,0.6244,0,0,0.6056,0.6067,0.6052,0.6062,0.6077,0.6096,0.6092,0.6114,0.6124,0.6113,0.6144,0.6141,0.6139,0.6147,0.6151,0.61,0.6123,0.6099,0.6063,0.6052,0.6045,0.604,0.6022,0.6016,0.6095,0.6095,0.6095,0,0.6016,0.6011,0.604,0.6032,0.6036,0.6075,0.6059,0.6067,0.6081,0.6083,0.6101,0.6101,0.6112,0.6096,0.6084,0.6085,0.6083,0.6097,0.6044,0.6038,0.6034,0.6018,0.6011,0.6092,0.6093,0.6093,0.6093,0,0.5961,0.5957,0.5943,0.5958,0.596,0.5948,0.5976,0.5975,0.5995,0.6012,0.6001,0.6017,0.6022,0.602,0.6038,0.6007,0.6016,0.6038,0.6069,0.6022,0.6008,0.6002,0.6088,0.6089,0.609,0.6091,0,0,0.5869,0.5902,0.5896,0.5904,0.5925,0.5923,0.5913,0.592,0.5919,0.5927,0.5921,0.5919,0.5941,0.5945,0.5965,0.5955,0.5916,0.5979,0.598,0.5968,0.5884,0.5868,0.586,0.5931,0.593,0.5929,0.5883,0,0.5816,0.5803,0.583,0.581,0.5808,0.5845,0.5837,0.5849,0.5865,0.5865,0.5882,0.5882,0.5909,0.5912,0.5904,0.5922,0.5899,0.5926,0.5926,0.5925,0.5922,0.5853,0.5835,0.5791,0.5878,0.5877,0.5876,0,0.5753,0.5761,0.5741,0.5765,0.5765,0.5757,0.5767,0.5766,0.5781,0.5794,0.58,0.5825,0.5817,0.5847,0.5838,0.5855,0.5857,0.5866,0.5865,0.5866,0.5898,0.5853,0.5777,0.5771,0.5867,0.5868,0.5869,0,0.5689,0.5695,0.5684,0.5689,0.5717,0.5711,0.5722,0.5739,0.5742,0.575,0.5752,0.5759,0.5762,0.5767,0.5793,0.5812,0.5781,0.5812,0.5792,0.5791,0.5784,0.5784,0.5708,0.5784,0.5784,0.5784,0.5784,0,0.5628,0.5615,0.5656,0.5649,0.5636,0.5668,0.5653,0.5668,0.5683,0.568,0.5712,0.5709,0.5743,0.5743,0.5763,0.5754,0.5755,0.5765,0.5771,0.5763,0.5761,0.5764,0.5769,0.5782,0.5782,0.5783,0.5783,0,0.5555,0.5581,0.5573,0.56,0.5607,0.5596,0.562,0.5615,0.5634,0.563,0.5631,0.566,0.5662,0.5689,0.5696,0.571,0.5693,0.5704,0.5688,0.5692,0.5671,0.5673,0.5594,0.5586,0.5666,0.5665,0.5664,0,0.5514,0.5505,0.5533,0.5534,0.5544,0.5545,0.5549,0.558,0.5583,0.56,0.5594,0.5599,0.5605,0.5607,0.5629,0.5635,0.5647,0.562,0.5648,0.5641,0.5648,0.5649,0.5649,0.5613,0.5612,0.5612,0.5611,0,0.544,0.5455,0.546,0.5469,0.5474,0.5483,0.5493,0.5492,0.5527,0.5529,0.5533,0.5537,0.5546,0.5552,0.5562,0.5574,0.5598,0.5602,0.5598,0.559,0.5582,0.5587,0.5672,0.5603,0.5604,0.5605,0.5605,0.5605,0.5383,0.5378,0.5397,0.5401,0.5414,0.5423,0.5421,0.5441,0.5444,0.5455,0.5474,0.5475,0.5492,0.5509,0.5519,0.552,0.5535,0.5528,0.5527,0.5525,0.5521,0.5581,0.5522,0.5522,0.5522,0.5523,0.5523,0,0.5312,0.5327,0.5331,0.5346,0.535,0.5374,0.5388,0.539,0.5391,0.5405,0.5411,0.5416,0.5422,0.5445,0.5453,0.545,0.5462,0.5451,0.5452,0.5455,0.5507,0.551,0.5442,0.5442,0.5442,0.5442,0.5442,0.5442,0.5276,0.5268,0.5285,0.5284,0.5299,0.5302,0.5308,0.5318,0.5329,0.5334,0.534,0.5355,0.5373,0.5383,0.539,0.5397,0.5399,0.5384,0.5395,0.5443,0.5451,0.5458,0.5462,0.5384,0.5384,0.5343,0.5343,0.5342]}]]